Location: *
(51.0333°S, 178.4667°E)
Time: 16:23:46
(UTC+00:00)

Cosmos 1340 - Pass Details

Date: 15 November 2019
Orbit: 501 x 506 km, 81.2° (Epoch: 06 December)

Event Time Altitude Azimuth Distance (km) Brightness Sun altitude
Exits shadow 08:34:12 11° 43° (NE) 1,677 4.6 -8.3°
Maximum altitude 08:36:54 21° 90° (E) 1,210 4.2 -8.6°
Drops below altitude 10° 08:39:50 10° 140° (SE) 1,764 5.5 -8.9°
Sets 08:42:21 0° 155° (SSE) 2,661 6.6 -9.2°
